Weather History for Oakland, MD

Change the Weather History Date:

Tuesday, June 18, 2013

  Actual Average (KMGW) Record (KMGW)
Temperature  
Mean Temperature 64 °F 70 °F  
Max Temperature 69 °F 81 °F 95 °F (1957)
Min Temperature 59 °F 60 °F 41 °F (1950)
Degree Days  
Heating Degree Days 1 1  
Month to date heating degree days 27  
Since 1 June heating degree days 27  
Since 1 July heating degree days 5180  
Cooling Degree Days 0 6  
Month to date cooling degree days 78  
Year to date cooling degree days 145  
Since 1 June cooling degree days 78  
Growing Degree Days 14 (Base 50)    
Moisture  
Dew Point 62 °F    
Average Humidity 95    
Maximum Humidity 100    
Minimum Humidity 73    
Precipitation  
Precipitation 0.00 in 0.14 in 0.79 in (1957)
Month to date precipitation 2.46  
Year to date precipitation 19.65  
Sea Level Pressure  
Sea Level Pressure 29.98 in    
Wind  
Wind Speed 3 mph (SW)    
Max Wind Speed 8 mph    
Max Gust Speed -    
Visibility 9 miles    
Events      
T = Trace of Precipitation, MM = Missing Value Source: NWS Daily Summary

Daily Weather History Graph

Daily Weather History Graph

Search for Another Location

Airport:

Trip Planner

Search our weather history database for the weather conditions in past years. The results will help you decide how hot, cold, wet, or windy it might be!

Date:

Astronomy

Jun. 18, 2013 Rise Set
Actual Time 5:49 AM EDT 8:47 PM EDT
Civil Twilight 5:17 AM EDT 9:20 PM EDT
Nautical Twilight 4:35 AM EDT 10:01 PM EDT
Astronomical Twilight 3:47 AM EDT 10:49 PM EDT
Moon 3:31 PM EDT (6/18) 1:55 AM EDT (6/18)
Length of Visible Light 16h 03m
Length of Day
14h 58m
Waxing Gibbous, 70% of the Moon is Illuminated
Jun 18
Waxing Gibbous
Jun 23
Full
Jun 30
Last Quarter
Jul 8
New
Jul 15
First Quarter

Hourly Weather History & Observations

Time (EDT) Temp. Dew Point Humidity Pressure Visibility Wind Dir Wind Speed Gust Speed Precip Events Conditions
12:00 AM 64.4 °F 62.6 °F 94% 30.05 in 10.0 mi Calm Calm - N/A   Clear
12:20 AM 64.4 °F 62.6 °F 94% 30.04 in 10.0 mi South 3.5 mph - N/A   Clear
12:40 AM 62.6 °F 62.6 °F 100% 30.03 in 10.0 mi South 3.5 mph - N/A   Clear
1:00 AM 62.6 °F 62.6 °F 100% 30.03 in 10.0 mi South 3.5 mph - N/A   Clear
1:20 AM 62.6 °F 62.6 °F 100% 30.02 in 10.0 mi South 3.5 mph - N/A   Clear
1:40 AM 62.6 °F 62.6 °F 100% 30.01 in 10.0 mi South 3.5 mph - N/A   Clear
2:00 AM 64.4 °F 62.6 °F 94% 30.01 in 10.0 mi Calm Calm - N/A   Clear
2:20 AM 62.6 °F 62.6 °F 100% 30.00 in 10.0 mi SE 3.5 mph - N/A   Clear
2:40 AM 62.6 °F 62.6 °F 100% 29.99 in 10.0 mi SE 4.6 mph - N/A   Clear
3:00 AM 62.6 °F 62.6 °F 100% 29.99 in 10.0 mi SSE 4.6 mph - N/A   Clear
3:20 AM 62.6 °F 62.6 °F 100% 29.99 in 10.0 mi SSE 5.8 mph - N/A   Clear
3:40 AM 62.6 °F 62.6 °F 100% 29.98 in 10.0 mi SSE 5.8 mph - N/A   Clear
4:00 AM 62.6 °F 62.6 °F 100% 29.98 in 10.0 mi South 5.8 mph - N/A   Clear
4:25 AM 62.6 °F 62.6 °F 100% 29.97 in 10.0 mi South 5.8 mph - N/A   Clear
4:45 AM 62.6 °F 62.6 °F 100% 29.97 in 10.0 mi South 4.6 mph - N/A   Clear
5:05 AM 62.6 °F 62.6 °F 100% 29.97 in 10.0 mi South 5.8 mph - N/A   Clear
5:25 AM 62.6 °F 62.6 °F 100% 29.98 in 10.0 mi South 4.6 mph - N/A   Clear
5:45 AM 62.6 °F 62.6 °F 100% 29.99 in 10.0 mi SSW 5.8 mph - N/A   Clear
6:05 AM 62.6 °F 62.6 °F 100% 29.98 in 10.0 mi SW 3.5 mph - N/A   Clear
6:25 AM 62.6 °F 62.6 °F 100% 29.98 in 10.0 mi Calm Calm - N/A   Clear
6:45 AM 62.6 °F 62.6 °F 100% 29.98 in 10.0 mi WNW 3.5 mph - N/A   Clear
7:05 AM 62.6 °F 62.6 °F 100% 29.98 in 10.0 mi Calm Calm - N/A   Clear
7:25 AM 62.6 °F 62.6 °F 100% 29.98 in 10.0 mi Calm Calm - N/A   Clear
7:45 AM 64.4 °F 64.4 °F 100% 29.98 in 10.0 mi Calm Calm - N/A   Clear
8:05 AM 62.6 °F 62.6 °F 100% 29.99 in 10.0 mi Calm Calm - N/A   Clear
8:25 AM 64.4 °F 64.4 °F 100% 29.99 in 10.0 mi Calm Calm - N/A   Clear
8:45 AM 66.2 °F 64.4 °F 94% 29.99 in 10.0 mi Calm Calm - N/A   Clear
9:05 AM 66.2 °F 64.4 °F 94% 29.99 in 10.0 mi Calm Calm - N/A   Clear
9:25 AM 66.2 °F 64.4 °F 94% 29.99 in 10.0 mi Calm Calm - N/A   Clear
9:45 AM 66.2 °F 64.4 °F 94% 29.99 in 10.0 mi Calm Calm - N/A   Clear
10:05 AM 66.2 °F 64.4 °F 94% 29.99 in 10.0 mi Calm Calm - N/A   Clear
10:25 AM 68.0 °F 64.4 °F 88% 29.99 in 10.0 mi Calm Calm - N/A   Scattered Clouds
10:45 AM 68.0 °F 64.4 °F 88% 29.99 in 7.0 mi Calm Calm - N/A   Mostly Cloudy
11:05 AM 68.0 °F 64.4 °F 88% 29.98 in 10.0 mi NNE 3.5 mph - N/A   Mostly Cloudy
11:25 AM 66.2 °F 64.4 °F 94% 29.99 in 10.0 mi ESE 5.8 mph - N/A   Overcast
11:45 AM 62.6 °F 59.0 °F 88% 29.99 in 10.0 mi SE 3.5 mph - N/A   Overcast
12:05 PM 62.6 °F 59.0 °F 88% 29.99 in 7.0 mi SE 3.5 mph - N/A   Overcast
12:25 PM 60.8 °F 60.8 °F 100% 29.99 in 1.8 mi Calm Calm - N/A   Overcast
12:45 PM 62.6 °F 62.6 °F 100% 30.00 in 3.0 mi SSW 4.6 mph - N/A   Overcast
1:05 PM 60.8 °F 60.8 °F 100% 29.99 in 4.0 mi South 8.1 mph - N/A   Overcast
1:25 PM 59.0 °F 59.0 °F 100% 29.97 in 7.0 mi South 6.9 mph - N/A   Overcast
1:45 PM 59.0 °F 59.0 °F 100% 29.96 in 10.0 mi South 8.1 mph - N/A   Overcast
2:05 PM 62.6 °F 62.6 °F 100% 29.97 in 10.0 mi Calm Calm - N/A   Mostly Cloudy
2:25 PM 62.6 °F 62.6 °F 100% 29.96 in 10.0 mi South 3.5 mph - N/A   Overcast
2:45 PM 62.6 °F 60.8 °F 94% 29.96 in 10.0 mi Calm Calm - N/A   Overcast
3:05 PM 62.6 °F 60.8 °F 94% 29.96 in 10.0 mi SE 3.5 mph - N/A   Mostly Cloudy
3:25 PM 62.6 °F 60.8 °F 94% 29.95 in 10.0 mi Calm Calm - N/A   Scattered Clouds
3:45 PM 66.2 °F 60.8 °F 83% 29.94 in 10.0 mi Calm Calm - N/A   Scattered Clouds
4:05 PM 66.2 °F 62.6 °F 88% 29.94 in 10.0 mi Calm Calm - N/A   Scattered Clouds
4:25 PM 66.2 °F 62.6 °F 88% 29.94 in 10.0 mi Calm Calm - N/A   Clear
4:45 PM 68.0 °F 60.8 °F 78% 29.94 in 10.0 mi WSW 3.5 mph - N/A   Scattered Clouds
5:05 PM 69.8 °F 60.8 °F 73% 29.94 in 10.0 mi WNW 5.8 mph - N/A   Scattered Clouds
5:25 PM 68.0 °F 60.8 °F 78% 29.94 in 10.0 mi NNW 4.6 mph - N/A   Scattered Clouds
5:45 PM 68.0 °F 60.8 °F 78% 29.93 in 10.0 mi WNW 5.8 mph - N/A   Scattered Clouds
6:05 PM 68.0 °F 60.8 °F 78% 29.93 in 10.0 mi WNW 4.6 mph - N/A   Clear
6:25 PM 64.4 °F 60.8 °F 88% 29.94 in 10.0 mi West 4.6 mph - N/A   Scattered Clouds
6:45 PM 66.2 °F 60.8 °F 83% 29.95 in 10.0 mi West 6.9 mph - N/A   Mostly Cloudy
7:05 PM 64.4 °F 62.6 °F 94% 29.95 in 10.0 mi West 4.6 mph - N/A   Mostly Cloudy
7:25 PM 64.4 °F 60.8 °F 88% 29.96 in 10.0 mi West 6.9 mph - N/A   Mostly Cloudy
7:45 PM 62.6 °F 62.6 °F 100% 29.96 in 10.0 mi WNW 4.6 mph - N/A   Mostly Cloudy
8:05 PM 62.6 °F 62.6 °F 100% 29.96 in 10.0 mi WNW 5.8 mph - N/A   Overcast
8:25 PM 62.6 °F 62.6 °F 100% 29.97 in 10.0 mi NW 3.5 mph - N/A   Overcast
8:45 PM 62.6 °F 62.6 °F 100% 29.97 in 10.0 mi NNW 3.5 mph - N/A   Mostly Cloudy
9:05 PM 62.6 °F 62.6 °F 100% 29.97 in 10.0 mi NNW 4.6 mph - N/A   Mostly Cloudy
9:25 PM 60.8 °F 60.8 °F 100% 29.98 in 10.0 mi NNW 3.5 mph - N/A   Overcast
9:45 PM 60.8 °F 60.8 °F 100% 29.99 in 7.0 mi Calm Calm - N/A   Overcast
10:05 PM 60.8 °F 60.8 °F 100% 29.99 in 7.0 mi Calm Calm - N/A   Scattered Clouds
10:25 PM 60.8 °F 60.8 °F 100% 30.00 in 7.0 mi Calm Calm - N/A   Scattered Clouds
10:45 PM 60.8 °F 60.8 °F 100% 30.00 in 5.0 mi West 3.5 mph - N/A   Mostly Cloudy
11:05 PM 60.8 °F 60.8 °F 100% 30.01 in 5.0 mi West 4.6 mph - N/A   Overcast
11:25 PM 60.8 °F 60.8 °F 100% 30.00 in 7.0 mi WNW 3.5 mph - N/A   Overcast
11:45 PM 60.8 °F 60.8 °F 100% 30.00 in 7.0 mi Calm Calm - N/A   Overcast